Lincoln, NE

7:51 AM CST on November 15, 2019 (GMT -0600)
Lincoln Municipal

Weather History for KLNK - August, 2019

Change the Weather History Date:

Sunday, August 11, 2019

  Actual Average Record
Temperature  
Mean Temperature 80 °F 76 °F  
Max Temperature 87 °F 88 °F 105 °F (1935)
Min Temperature 72 °F 65 °F 48 °F (1902)
Degree Days  
Heating Degree Days 0 0  
Month to date heating degree days 0 0  
Since 1 June heating degree days 6 17  
Since 1 July heating degree days 0 1  
Cooling Degree Days 15 11  
Month to date cooling degree days 140 130  
Year to date cooling degree days 886 841  
Since 1 June cooling degree days 814 762  
Growing Degree Days 30 (Base 50)    
Moisture  
Dew Point 71 °F    
Average Humidity 79    
Maximum Humidity 93    
Minimum Humidity 65    
Precipitation  
Precipitation 0.46 in 0.11 in 1.94 in (1925)
Month to date precipitation 0.82 1.17  
Year to date precipitation 22.69 19.26  
Snow  
Snow 0.00 in 0.00 in 0.00 in (2006)
Month to date snowfall 0.0 0.0  
Since 1 June snowfall 0.0 0.0  
Since 1 July snowfall 0.0 0.0  
Snow Depth 0.00 in    
Sea Level Pressure  
Sea Level Pressure 29.93 in    
Wind  
Wind Speed 7 mph (SE)    
Max Wind Speed 28 mph    
Max Gust Speed 42 mph    
Visibility 9 miles    
Events Rain , Thunderstorm    
T = Trace of Precipitation, MM = Missing Value Source: NWS Daily Summary

Daily Weather History Graph

Daily Weather History Graph

Search for Another Location

Airport or City:

Astronomy

Aug. 11, 2019 Rise Set
Actual Time 6:32 AM CDT 8:30 PM CDT
Civil Twilight 6:03 AM CDT 9:00 PM CDT
Nautical Twilight 5:26 AM CDT 9:36 PM CDT
Astronomical Twilight 4:47 AM CDT 10:16 PM CDT
Moon 6:12 PM CDT (8/11) 2:53 AM CDT (8/11)
Length of Visible Light 14h 57m
Length of Day
13h 57m
Waxing Gibbous, 87% of the Moon is Illuminated
Aug 11
Waxing Gibbous
Aug 15
Full
Aug 23
Last Quarter
Aug 30
New
Sep 5
First Quarter

Hourly Weather History & Observations

Time (CDT) Temp. Heat Index Dew Point Humidity Pressure Visibility Wind Dir Wind Speed Gust Speed Precip Events Conditions
12:54 AM 80.1 °F 85.1 °F 75.0 °F 85% 29.90 in 10.0 mi SSW 4.6 mph - N/A   Clear
1:54 AM 79.0 °F - 75.0 °F 88% 29.88 in 10.0 mi SSW 4.6 mph - N/A   Clear
2:54 AM 79.0 °F - 73.9 °F 84% 29.86 in 10.0 mi Calm Calm - N/A   Clear
3:54 AM 78.1 °F - 73.9 °F 87% 29.90 in 10.0 mi South 3.5 mph - N/A   Clear
4:54 AM 78.1 °F - 73.9 °F 87% 29.90 in 10.0 mi Calm Calm - N/A   Clear
5:29 AM 77.0 °F - 73.9 °F 90% 29.92 in 9.0 mi NNE 3.5 mph - N/A Thunderstorm Thunderstorm
5:54 AM 77.0 °F - 73.9 °F 90% 29.90 in 9.0 mi SW 4.6 mph - 0.00 in Rain , Thunderstorm Light Rain
5:59 AM 78.1 °F - 75.0 °F 90% 29.95 in 9.0 mi SSW 10.4 mph - 0.00 in Rain , Thunderstorm Light Thunderstorms and Rain
6:33 AM 72.0 °F - 69.1 °F 91% 29.96 in 3.0 mi SSW 9.2 mph 24.2 mph 0.11 in Rain , Thunderstorm Heavy Thunderstorms and Rain
6:42 AM 72.0 °F - 69.1 °F 91% 29.95 in 2.0 mi SSW 3.5 mph - 0.21 in Rain , Thunderstorm Heavy Thunderstorms and Rain
6:49 AM 71.6 °F - 69.8 °F 94% 29.92 in 3.0 mi Calm Calm - 0.26 in Rain , Thunderstorm Heavy Rain
6:54 AM 72.0 °F - 68.0 °F 87% 29.88 in 5.0 mi North 5.8 mph - 0.28 in Rain Light Rain
7:54 AM 72.0 °F - 69.1 °F 91% 29.89 in 10.0 mi East 8.1 mph - 0.02 in Rain Light Rain
8:17 AM 72.0 °F - 69.1 °F 91% 29.99 in 10.0 mi North 11.5 mph - 0.00 in Rain Light Rain
8:54 AM 73.0 °F - 70.0 °F 90% 29.97 in 10.0 mi NNE 9.2 mph - 0.00 in   Mostly Cloudy
9:54 AM 72.0 °F - 69.1 °F 91% 29.97 in 5.0 mi East 5.8 mph - 0.06 in Rain Rain
10:16 AM 72.0 °F - 69.1 °F 91% 30.01 in 6.0 mi East 5.8 mph - 0.04 in Rain Light Rain
10:54 AM 73.0 °F - 71.1 °F 93% 29.99 in 6.0 mi East 5.8 mph - 0.09 in Rain Light Rain
11:06 AM 73.9 °F - 71.1 °F 91% 30.01 in 9.0 mi East 9.2 mph - 0.01 in Rain Light Rain
11:26 AM 75.0 °F - 71.1 °F 87% 30.02 in 10.0 mi ESE 10.4 mph - 0.01 in   Overcast
11:52 AM 75.2 °F - 71.6 °F 89% 30.01 in 10.0 mi ESE 11.5 mph - 0.01 in   Mostly Cloudy
11:54 AM 75.9 °F - 71.1 °F 85% 29.97 in 10.0 mi ESE 11.5 mph - 0.01 in   Mostly Cloudy
12:50 PM 78.8 °F - 71.6 °F 78% 29.99 in 10.0 mi South 12.7 mph - N/A   Scattered Clouds
12:54 PM 79.0 °F - 71.1 °F 77% 29.96 in 10.0 mi South 10.4 mph - N/A   Scattered Clouds
12:58 PM 80.1 °F 83.6 °F 71.1 °F 74% 29.99 in 10.0 mi SE 10.4 mph - N/A   Mostly Cloudy
1:17 PM 81.0 °F 84.9 °F 71.1 °F 72% 29.97 in 10.0 mi SSE 12.7 mph - N/A   Mostly Cloudy
1:54 PM 82.9 °F 87.5 °F 71.1 °F 67% 29.93 in 10.0 mi South 10.4 mph - N/A   Mostly Cloudy
2:54 PM 82.9 °F 87.5 °F 71.1 °F 67% 29.92 in 10.0 mi South 6.9 mph - N/A   Mostly Cloudy
3:17 PM 82.9 °F 87.5 °F 71.1 °F 67% 29.95 in 10.0 mi SSE 6.9 mph - N/A   Mostly Cloudy
3:49 PM 86.0 °F 91.8 °F 71.6 °F 62% 29.94 in 10.0 mi SSE 5.8 mph - N/A   Overcast
3:54 PM 84.9 °F 90.7 °F 72.0 °F 65% 29.91 in 10.0 mi SSE 5.8 mph - N/A   Mostly Cloudy
4:01 PM 84.9 °F 90.1 °F 71.1 °F 63% 29.94 in 10.0 mi SSE 5.8 mph - N/A   Scattered Clouds
4:54 PM 84.0 °F 89.0 °F 71.1 °F 65% 29.91 in 10.0 mi ESE 4.6 mph - N/A   Mostly Cloudy
5:54 PM 84.9 °F 90.7 °F 72.0 °F 65% 29.89 in 10.0 mi ESE 6.9 mph - N/A   Mostly Cloudy
6:47 PM 82.9 °F 88.0 °F 72.0 °F 69% 29.91 in 10.0 mi ESE 9.2 mph - N/A   Overcast
6:54 PM 82.9 °F 88.0 °F 72.0 °F 69% 29.87 in 10.0 mi East 9.2 mph - N/A   Overcast
7:28 PM 82.0 °F 86.7 °F 72.0 °F 71% 29.90 in 10.0 mi ESE 11.5 mph - N/A   Overcast
7:54 PM 82.0 °F 86.7 °F 72.0 °F 71% 29.86 in 10.0 mi ESE 12.7 mph - N/A   Mostly Cloudy
8:54 PM 80.1 °F 83.6 °F 71.1 °F 74% 29.86 in 10.0 mi ESE 10.4 mph - N/A   Overcast
9:54 PM 78.1 °F - 70.0 °F 76% 29.88 in 10.0 mi SE 11.5 mph - N/A   Clear
10:54 PM 77.0 °F - 70.0 °F 79% 29.89 in 10.0 mi ESE 9.2 mph - N/A   Clear
11:54 PM 77.0 °F - 70.0 °F 79% 29.85 in 10.0 mi ESE 11.5 mph - N/A   Clear